Location: Bercimuel
(41.3983°N, 3.5711°W)
Time: 20:29:12
(UTC+00:00)

Spot 2 Rocket - Pass Details

Date: 15 May 2026
Orbit: 752 x 765 km, 98.3° (Epoch: 6 June)

Event Time Altitude Azimuth Distance (km) Brightness Sun altitude
Exits shadow 21:03:00 21° 163° (SSE) 1,658 4.7 -15.6°
Maximum altitude 21:06:27 86° 76° (ENE) 761 3.4 -16.0°
Drops below altitude 10° 21:11:30 10° 348° (NNW) 2,290 6.8 -16.7°
Sets 21:13:48 0° 348° (NNW) 3,220 7.8 -17.0°
